TimeCST,TemperatureF,Dew PointF,Humidity,Sea Level PressureIn,VisibilityMPH,Wind Direction,Wind SpeedMPH,Gust SpeedMPH,PrecipitationIn,Events,Conditions,WindDirDegrees,DateUTC
12:01 AM,50.0,46.4,87,29.99,0.8,North,12.7,-,N/A,Fog,Fog,350,2013-01-16 06:01:00
12:08 AM,50.0,46.4,87,29.99,1.0,NNW,11.5,-,N/A,Fog,Fog,340,2013-01-16 06:08:00
12:48 AM,50.0,46.4,87,29.99,2.0,NNW,15.0,-,N/A,Fog,Fog,330,2013-01-16 06:48:00
12:53 AM,50.0,46.0,86,29.97,2.5,NNW,16.1,-,N/A,Fog,Fog,330,2013-01-16 06:53:00
1:30 AM,48.2,46.4,93,30.01,4.0,NNW,17.3,-,N/A,Fog,Fog,340,2013-01-16 07:30:00
1:53 AM,48.2,44.6,87,30.00,4.0,NNW,17.3,-,N/A,Fog,Fog,340,2013-01-16 07:53:00
2:04 AM,48.2,44.6,87,30.00,2.0,NNW,17.3,-,0.03,Fog-Rain,Light Rain,330,2013-01-16 08:04:00
2:20 AM,48.2,44.6,87,30.03,6.0,NW,15.0,-,0.06,Fog-Rain,Light Rain,320,2013-01-16 08:20:00
2:34 AM,48.2,44.6,87,30.00,9.0,North,17.3,-,0.06,Fog,Fog,350,2013-01-16 08:34:00
2:53 AM,48.0,44.1,86,30.00,8.0,North,16.1,-,0.06,Fog-Rain,Light Rain,350,2013-01-16 08:53:00
3:53 AM,48.0,43.0,83,29.97,4.0,NNW,18.4,-,0.06,Fog-Rain,Light Rain,340,2013-01-16 09:53:00
4:40 AM,46.4,42.8,87,30.02,2.5,NNW,17.3,-,0.06,Fog-Rain,Rain,330,2013-01-16 10:40:00
4:53 AM,46.9,42.1,83,29.99,4.0,NNW,18.4,-,0.08,Fog-Rain,Light Rain,340,2013-01-16 10:53:00
5:53 AM,46.4,42.8,87,30.04,5.0,NNW,17.3,-,N/A,Fog-Rain,Light Rain,330,2013-01-16 11:53:00
6:53 AM,46.0,41.0,83,30.03,3.0,NNW,20.7,-,0.09,Fog-Rain,Rain,340,2013-01-16 12:53:00
7:01 AM,46.4,41.0,81,30.06,2.5,North,16.1,-,0.02,Fog-Rain,Rain,350,2013-01-16 13:01:00
7:09 AM,44.6,39.2,81,30.06,2.5,NNW,20.7,-,0.04,Fog-Rain,Rain,340,2013-01-16 13:09:00
7:18 AM,44.6,41.0,87,30.06,3.0,NNW,19.6,-,0.05,Fog-Rain,Light Rain,340,2013-01-16 13:18:00
7:29 AM,44.6,39.2,81,30.07,3.0,North,17.3,-,0.05,Fog-Rain,Light Rain,350,2013-01-16 13:29:00
7:31 AM,44.6,39.2,81,30.07,2.5,North,16.1,-,0.07,Fog-Rain,Light Rain,350,2013-01-16 13:31:00
7:44 AM,44.6,39.2,81,30.08,6.0,North,16.1,-,0.07,Fog-Rain,Light Rain,350,2013-01-16 13:44:00
7:53 AM,45.0,39.9,82,30.06,10.0,North,13.8,-,0.07,Fog,Fog,350,2013-01-16 13:53:00
8:53 AM,46.0,39.9,79,30.09,10.0,NNW,16.1,-,N/A,,Overcast,340,2013-01-16 14:53:00
9:53 AM,46.0,39.9,79,30.09,10.0,NNW,21.9,-,0.01,,Overcast,330,2013-01-16 15:53:00
10:41 AM,46.4,39.2,76,30.11,10.0,NNW,16.1,-,N/A,,Overcast,340,2013-01-16 16:41:00
10:53 AM,46.0,39.9,79,30.08,10.0,North,16.1,-,N/A,,Overcast,350,2013-01-16 16:53:00
11:46 AM,46.4,39.2,76,30.09,10.0,NNW,18.4,-,N/A,,Overcast,330,2013-01-16 17:46:00
11:53 AM,46.0,39.9,79,30.07,10.0,NNW,19.6,-,N/A,,Overcast,330,2013-01-16 17:53:00
12:18 PM,46.4,39.2,76,30.09,10.0,NNW,18.4,-,N/A,,Overcast,330,2013-01-16 18:18:00
12:53 PM,46.9,39.9,77,30.05,10.0,NNW,18.4,-,N/A,,Overcast,340,2013-01-16 18:53:00
1:53 PM,46.9,39.9,77,30.03,10.0,North,13.8,23.0,N/A,,Overcast,350,2013-01-16 19:53:00
2:53 PM,46.9,39.9,77,30.03,10.0,NNW,12.7,-,N/A,,Overcast,330,2013-01-16 20:53:00
3:05 PM,46.4,39.2,76,30.06,10.0,NW,15.0,-,N/A,,Overcast,320,2013-01-16 21:05:00
3:53 PM,46.0,39.9,79,30.05,10.0,WNW,19.6,-,N/A,,Overcast,300,2013-01-16 21:53:00
4:53 PM,44.6,39.2,81,30.11,10.0,WNW,18.4,-,N/A,,Overcast,300,2013-01-16 22:53:00
5:53 PM,44.1,37.9,79,30.10,10.0,NW,16.1,-,N/A,,Overcast,310,2013-01-16 23:53:00
6:40 PM,44.6,37.4,76,30.12,10.0,NW,15.0,-,N/A,,Overcast,310,2013-01-17 00:40:00
6:53 PM,44.1,37.9,79,30.11,10.0,NW,16.1,-,N/A,,Overcast,310,2013-01-17 00:53:00
7:53 PM,44.1,37.0,76,30.12,10.0,WNW,15.0,-,N/A,,Overcast,300,2013-01-17 01:53:00
8:53 PM,44.1,37.9,79,30.13,10.0,WNW,19.6,-,N/A,,Overcast,290,2013-01-17 02:53:00
9:53 PM,44.1,37.9,79,30.12,10.0,WNW,21.9,-,N/A,,Overcast,300,2013-01-17 03:53:00
10:13 PM,44.6,37.4,76,30.15,10.0,WNW,21.9,-,N/A,,Overcast,290,2013-01-17 04:13:00
10:42 PM,44.6,37.4,76,30.14,10.0,WNW,25.3,-,0.00,,Overcast,290,2013-01-17 04:42:00
10:53 PM,44.1,37.9,79,30.13,10.0,WNW,23.0,-,0.00,,Overcast,300,2013-01-17 04:53:00
11:53 PM,44.1,37.9,79,30.13,10.0,WNW,21.9,-,N/A,,Overcast,300,2013-01-17 05:53:00